Location: Taylor Dark Sky Site
(39.1017°N, 87.9564°W)
Time: 11:17:16
(UTC-05:00)

Amateur Radio Satellites - All Passes

Search period start: 29 June 2016 10:47
Search period end: 30 June 2016 10:47
Location: Taylor Dark Sky Site, 39.1017°N, 87.9564°W

Satellite Date Start Highest point End Downlink Frequencies (MHz)
Time Altitude Azimuth
ANTELSAT 29 Jun 10:53:43 10:57:50 45° 262° (W) 11:02:04 437.575/2403.000
AAUSAT CUBESAT 2 29 Jun 10:56:53 10:58:29 12° 296° (WNW) 11:00:04 437.432
PCSat 29 Jun 10:59:04 11:04:17 45° 56° (NE) 11:09:26 145.827
DELFI C3 29 Jun 10:59:52 11:03:46 54° 286° (WNW) 11:07:38 145.870
ZACube-1 29 Jun 11:05:39 11:09:28 27° 291° (WNW) 11:13:18 437.345
BEESAT 3 29 Jun 11:06:02 11:09:48 40° 54° (NE) 11:13:32 437.485
JAS-2 29 Jun 11:10:44 11:15:50 20° 62° (ENE) 11:20:38 435.910
M-CUBED/EXP-1 PRIME 29 Jun 11:12:48 11:15:26 17° 296° (WNW) 11:18:12 437.505
Oscar 11 29 Jun 11:14:32 11:17:41 20° 293° (WNW) 11:20:50 145.826/435.025
FUNcube-1 29 Jun 11:23:15 11:26:29 19° 293° (WNW) 11:29:44 145.935
YUBILEINY 29 Jun 11:24:33 11:30:01 19° 78° (ENE) 11:35:32 435.215
CUBEBUG 1 29 Jun 11:26:40 11:28:37 13° 92° (E) 11:30:33 437.445
50 SAT 29 Jun 11:28:57 11:30:10 11° 92° (E) 11:31:22 437.505
BUGSAT 1 29 Jun 11:30:00 11:33:23 27° 70° (ENE) 11:36:46 437.445
UWE-3 29 Jun 11:30:37 11:32:00 11° 297° (WNW) 11:33:24 435.000/436.395/437.385
VELOX 1 29 Jun 11:36:24 11:39:00 15° 93° (E) 11:41:35 145.980
O/OREOS (USA 219) 29 Jun 11:37:08 11:40:12 18° 57° (ENE) 11:43:14 437.305
Cosmos 2491 29 Jun 11:37:41 11:46:14 56° 78° (ENE) 11:54:44 435.465 / 435.565
BEESAT 2 29 Jun 11:45:25 11:49:23 60° 57° (ENE) 11:53:19 435.950
TIGRISAT 29 Jun 11:47:40 11:49:37 13° 269° (W) 11:51:34 435.000
NANOSAT C BR1 29 Jun 11:52:00 11:56:08 64° 259° (W) 12:00:19 145.865
UNISAT 6 29 Jun 11:54:33 11:55:09 10° 271° (W) 11:55:44 437.425
QB50P1 29 Jun 11:55:33 11:59:39 55° 259° (W) 12:03:47 145.935-145.965
POPSAT HIP 1 29 Jun 11:58:54 12:02:58 51° 260° (W) 12:07:05 437.405
PHONESAT 2.4 29 Jun 11:59:40 12:02:05 21° 209° (SSW) 12:04:31 2401.200-2431.200
Oscar 19 29 Jun 12:05:46 12:08:17 14° 61° (ENE) 12:10:49 437.125/150
QB50P2 29 Jun 12:11:47 12:15:35 33° 263° (W) 12:19:25 145.880/145.840
HUMSAT D 29 Jun 12:11:52 12:15:06 21° 292° (WNW) 12:18:19 437.325/437.525
UKube-1 29 Jun 12:12:02 12:15:29 23° 96° (E) 12:18:54 .
SPROUT 29 Jun 12:12:24 12:15:10 17° 93° (E) 12:17:55 437.525
DUCHIFAT 1 29 Jun 12:12:28 12:16:21 38° 262° (W) 12:20:17 145.980
POLYITAN 1 29 Jun 12:14:27 12:18:13 32° 262° (W) 12:22:01 437.675
ESTCUBE 1 29 Jun 12:15:19 12:19:49 72° 103° (ESE) 12:24:17 437.505/2401.250
AISAT 29 Jun 12:16:02 12:20:15 45° 99° (E) 12:24:27 437.250
RS-15 29 Jun 12:16:52 12:28:16 88° 300° (WNW) 12:40:22 29.354- 29.394
Gurwin Techsat 1B 29 Jun 12:31:30 12:32:25 10° 58° (ENE) 12:33:20 435.225
DX 1 29 Jun 12:32:59 12:37:12 51° 100° (E) 12:41:25 434.975-435.025
AIST 2 29 Jun 12:35:49 12:38:04 14° 44° (NE) 12:40:17 435.215
PCSat 29 Jun 12:43:06 12:47:22 24° 253° (WSW) 12:51:37 145.827
BEESAT 3 29 Jun 12:44:44 12:47:08 16° 250° (WSW) 12:49:32 437.485
JAS-2 29 Jun 12:52:29 13:00:12 80° 257° (WSW) 13:07:15 435.910
50 SAT 29 Jun 13:00:33 13:04:03 41° 287° (WNW) 13:07:29 437.505
CUBEBUG 1 29 Jun 13:00:59 13:05:11 51° 287° (WNW) 13:09:22 437.445
BUGSAT 1 29 Jun 13:05:41 13:08:44 21° 265° (W) 13:11:48 437.445
ISS 29 Jun 13:09:29 13:10:57 12° 15° (NNE) 13:12:25 145.825
VELOX 1 29 Jun 13:11:29 13:15:40 44° 288° (WNW) 13:19:50 145.980
O/OREOS (USA 219) 29 Jun 13:15:32 13:19:49 44° 254° (WSW) 13:24:04 437.305
YUBILEINY 29 Jun 13:16:55 13:25:38 83° 277° (W) 13:34:28 435.215
BEESAT 2 29 Jun 13:25:49 13:26:41 11° 252° (WSW) 13:27:34 435.950
TISAT 1 29 Jun 13:28:37 13:32:18 29° 97° (E) 13:35:58 437.305
Cosmos 2491 29 Jun 13:35:22 13:42:31 30° 277° (W) 13:49:42 435.465 / 435.565
Oscar 19 29 Jun 13:41:50 13:46:59 73° 258° (WSW) 13:52:08 437.125/150
SPROUT 29 Jun 13:47:15 13:51:15 39° 288° (WNW) 13:55:13 437.525
UKube-1 29 Jun 13:47:47 13:51:29 28° 291° (WNW) 13:55:10 .
Cosmos 2504 29 Jun 13:50:00 13:57:47 54° 90° (E) 14:06:07 435.465 / 435.565
AISAT 29 Jun 13:53:40 13:56:21 16° 295° (WNW) 13:59:02 437.250
ESTCUBE 1 29 Jun 13:54:44 13:55:59 11° 298° (WNW) 13:57:16 437.505/2401.250
Gurwin Techsat 1B 29 Jun 14:06:10 14:11:29 82° 75° (ENE) 14:16:49 435.225
ITAMSAT 1 29 Jun 14:07:08 14:11:38 30° 67° (ENE) 14:16:08 435.822/435.867
DX 1 29 Jun 14:10:39 14:12:57 14° 296° (WNW) 14:15:15 434.975-435.025
AIST 2 29 Jun 14:12:50 14:16:59 67° 241° (WSW) 14:21:05 435.215
SWISSCUBE 29 Jun 14:22:19 14:26:10 24° 95° (E) 14:30:00 437.505
RS-15 29 Jun 14:32:40 14:42:37 31° 327° (NNW) 14:53:02 29.354- 29.394
AO-7 29 Jun 14:38:03 14:45:33 39° 61° (ENE) 14:53:06 29.400- 29.500
JAS-2 29 Jun 14:42:31 14:45:52 13° 271° (W) 14:49:09 435.910
ISS 29 Jun 14:44:54 14:48:04 44° 34° (NE) 14:51:12 145.825
BEESAT 29 Jun 14:47:00 14:51:30 38° 98° (E) 14:55:56 436.000
ITUPSAT 1 29 Jun 14:48:42 14:53:12 39° 98° (E) 14:57:41 437.325
TISAT 1 29 Jun 15:04:32 15:07:47 22° 292° (WNW) 15:11:02 437.305
YUBILEINY 29 Jun 15:18:55 15:23:52 16° 298° (WNW) 15:28:53 435.215
SO-50 29 Jun 15:19:37 15:24:15 44° 116° (ESE) 15:28:53 436.795
HORYU 2 29 Jun 15:44:00 15:46:21 14° 63° (ENE) 15:48:42 437.375
JUGNU 29 Jun 15:44:04 15:45:04 10° 174° (S) 15:46:05 437.505
Cosmos 2504 29 Jun 15:44:27 15:51:32 32° 290° (WNW) 15:59:03 435.465 / 435.565
ITAMSAT 1 29 Jun 15:46:23 15:51:00 31° 263° (W) 15:55:38 435.822/435.867
Gurwin Techsat 1B 29 Jun 15:50:34 15:52:01 11° 271° (W) 15:53:28 435.225
SWISSCUBE 29 Jun 15:59:41 16:03:59 34° 291° (WNW) 16:08:16 437.505
ISS 29 Jun 16:21:58 16:24:16 18° 229° (SW) 16:26:33 145.825
BEESAT 29 Jun 16:25:23 16:29:00 22° 294° (WNW) 16:32:37 436.000
ITUPSAT 1 29 Jun 16:27:10 16:30:46 21° 294° (WNW) 16:34:21 437.325
AO-7 29 Jun 16:30:12 16:38:07 47° 259° (W) 16:46:07 29.400- 29.500
AIST 1 29 Jun 16:48:48 16:52:55 44° 93° (E) 16:57:00
RS-15 29 Jun 16:52:47 17:00:49 19° 3° (N) 17:08:59 29.354- 29.394
MOZHAYETS 4 29 Jun 16:53:57 16:58:37 85° 284° (WNW) 17:03:15
KKS-1 29 Jun 16:55:55 17:00:22 75° 285° (WNW) 17:04:48 437.445
CUTE-I 29 Jun 16:57:01 16:59:48 14° 61° (ENE) 17:02:36 437.470
SO-50 29 Jun 17:00:54 17:04:55 25° 313° (NW) 17:08:55 436.795
HORYU 2 29 Jun 17:18:07 17:22:26 53° 260° (W) 17:26:48 437.375
NOAA 15 29 Jun 17:19:28 17:24:06 32° 68° (ENE) 17:28:43 137.62
GONETS M04 29 Jun 17:20:56 17:27:36 25° 82° (E) 17:34:14
STARS 29 Jun 17:25:04 17:29:29 71° 284° (WNW) 17:33:52 437.465
JUGNU 29 Jun 17:31:52 17:33:09 11° 185° (S) 17:34:24 437.505
LilacSat-2 29 Jun 17:55:14 17:58:43 36° 73° (ENE) 18:02:14 437.200
Cubesat XI-IV 29 Jun 18:00:01 18:05:12 53° 72° (ENE) 18:10:25 437.490
NOAA 18 29 Jun 18:03:29 18:08:52 66° 73° (ENE) 18:14:20 137.9125
BRITE-PL 29 Jun 18:04:41 18:09:46 79° 76° (ENE) 18:14:27 437.365/2234.400
Cosmos 2499 29 Jun 18:23:04 18:30:45 44° 87° (E) 18:38:53 435.465 / 435.565
CUBESAT XI-V 29 Jun 18:24:36 18:29:15 81° 284° (WNW) 18:33:50 437.345
AIST 1 29 Jun 18:28:24 18:30:44 14° 289° (WNW) 18:33:05
GOMX 1 29 Jun 18:32:51 18:37:27 68° 75° (ENE) 18:41:46 467.674
CUTE-I 29 Jun 18:33:51 18:39:10 75° 257° (WSW) 18:44:34 437.470
HO-68 29 Jun 18:39:05 18:44:23 23° 59° (ENE) 18:49:42 435.675
SRMSAT 29 Jun 18:48:22 18:49:58 11° 179° (S) 18:51:35 437.500
CUSAT 1 29 Jun 18:55:50 18:59:14 56° 265° (W) 19:02:01 437.405
NOAA 15 29 Jun 18:59:10 19:03:48 31° 263° (W) 19:08:27 137.62
RS-15 29 Jun 19:07:47 19:18:43 35° 37° (NE) 19:29:37 29.354- 29.394
CANX-2 29 Jun 19:11:55 19:15:12 22° 68° (ENE) 19:18:30 2200.000
GONETS M04 29 Jun 19:15:02 19:23:39 65° 281° (W) 19:32:18
DOVE 4 29 Jun 19:27:21 19:31:40 67° 259° (WSW) 19:35:51 437.250
DANDE 29 Jun 19:29:09 19:33:52 78° 264° (W) 19:37:23 436.750
CUTE 1.7 + AOD 2 29 Jun 19:31:07 19:34:52 30° 71° (ENE) 19:38:39 437.475
LilacSat-2 29 Jun 19:31:14 19:33:10 14° 268° (W) 19:35:07 437.200
SEEDS 29 Jun 19:33:19 19:36:41 23° 69° (ENE) 19:40:04 437.485
Cubesat XI-IV 29 Jun 19:41:58 19:45:34 18° 268° (W) 19:49:11 437.490
NOAA 18 29 Jun 19:46:54 19:49:59 15° 268° (W) 19:53:05 137.9125
CUBEBUG 2 29 Jun 20:03:38 20:06:57 23° 68° (ENE) 20:10:20 437.445
AAUSAT CUBESAT 2 29 Jun 20:08:29 20:12:12 31° 71° (ENE) 20:15:56 437.432
CINEMA 3 29 Jun 20:14:02 20:18:10 74° 259° (W) 20:22:20 145.822/145.860
STRAND 1 29 Jun 20:14:04 20:19:15 84° 103° (ESE) 20:24:23 437.568
Cosmos 2499 29 Jun 20:16:11 20:23:53 40° 287° (WNW) 20:32:02 435.465 / 435.565
M-CUBED/EXP-1 PRIME 29 Jun 20:23:56 20:26:54 33° 67° (ENE) 20:29:53 437.505
HO-68 29 Jun 20:24:19 20:31:26 70° 256° (WSW) 20:38:37 435.675
ZACube-1 29 Jun 20:24:55 20:27:48 18° 67° (ENE) 20:30:46 437.345
Oscar 11 29 Jun 20:31:43 20:35:12 24° 69° (ENE) 20:38:42 145.826/435.025
FUNcube-1 29 Jun 20:41:06 20:44:34 25° 69° (ENE) 20:48:07 145.935
COMPASS 1 29 Jun 20:43:17 20:47:29 78° 258° (WSW) 20:51:44 437.405
CANX-2 29 Jun 20:47:05 20:50:52 30° 264° (W) 20:54:41 2200.000
UWE-3 29 Jun 20:47:29 20:51:31 49° 73° (ENE) 20:55:40 435.000/436.395/437.385
AO-85 29 Jun 20:50:12 20:55:19 42° 115° (ESE) 21:00:17 145.980
PRISM 29 Jun 20:54:26 20:58:04 31° 97° (E) 21:01:42 437.425
CUTE 1.7 + AOD 2 29 Jun 21:07:28 21:10:44 21° 266° (W) 21:14:01 437.475
SEEDS 29 Jun 21:08:35 21:12:14 28° 264° (W) 21:15:55 437.485
AUBIESAT-1 29 Jun 21:17:36 21:20:47 49° 255° (WSW) 21:24:02 437.475
GONETS M04 29 Jun 21:19:56 21:22:23 11° 302° (WNW) 21:24:51
RS-15 29 Jun 21:20:20 21:32:44 83° 242° (WSW) 21:44:57 29.354- 29.394
HUMSAT D 29 Jun 21:26:32 21:29:34 20° 67° (ENE) 21:32:40 437.325/437.525
CUBEBUG 2 29 Jun 21:39:56 21:43:27 26° 265° (W) 21:47:03 437.445
DELFI C3 29 Jun 21:44:05 21:48:05 70° 76° (ENE) 21:52:06 145.870
AAUSAT CUBESAT 2 29 Jun 21:44:40 21:47:43 20° 266° (W) 21:50:48 437.432
STRAND 1 29 Jun 21:55:47 21:57:40 12° 300° (WNW) 21:59:33 437.568
ZACube-1 29 Jun 21:59:57 22:03:49 36° 263° (W) 22:07:47 437.345
M-CUBED/EXP-1 PRIME 29 Jun 22:00:54 22:01:38 11° 262° (W) 22:02:22 437.505
TIGRISAT 29 Jun 22:02:39 22:04:43 13° 91° (E) 22:06:47 435.000
Oscar 11 29 Jun 22:07:28 22:11:11 28° 264° (W) 22:14:58 145.826/435.025
UNISAT 6 29 Jun 22:07:37 22:10:24 16° 92° (E) 22:13:12 437.425
FUNcube-1 29 Jun 22:17:17 22:20:44 25° 265° (W) 22:24:16 145.935
CUBEBUG 1 29 Jun 22:23:32 22:24:00 10° 62° (ENE) 22:24:29 437.445
UWE-3 29 Jun 22:26:30 22:28:18 12° 270° (W) 22:30:07 435.000/436.395/437.385
PRISM 29 Jun 22:30:15 22:33:10 19° 293° (WNW) 22:36:04 437.425
AO-85 29 Jun 22:31:13 22:35:55 30° 311° (NW) 22:40:29 145.980
VELOX 1 29 Jun 22:33:36 22:35:36 13° 63° (ENE) 22:37:35 145.980
ANTELSAT 29 Jun 22:46:05 22:50:28 40° 98° (E) 22:54:53 437.575/2403.000
Cosmos 2491 29 Jun 22:49:16 22:50:32 10° 73° (ENE) 22:51:49 435.465 / 435.565
HUMSAT D 29 Jun 23:01:14 23:04:58 32° 263° (W) 23:08:47 437.325/437.525
UKube-1 29 Jun 23:06:02 23:08:57 18° 66° (ENE) 23:11:52 .
SPROUT 29 Jun 23:06:24 23:07:55 12° 64° (ENE) 23:09:26 437.525
AISAT 29 Jun 23:12:17 23:16:18 35° 70° (ENE) 23:20:17 437.250
ESTCUBE 1 29 Jun 23:13:23 23:17:50 56° 74° (ENE) 23:22:18 437.505/2401.250
DX 1 29 Jun 23:27:19 23:31:19 38° 71° (ENE) 23:35:20 434.975-435.025
YUBILEINY 29 Jun 23:28:39 23:37:07 47° 76° (ENE) 23:45:33 435.215
RS-15 29 Jun 23:35:27 23:43:19 20° 262° (W) 23:51:09 29.354- 29.394
50 SAT 29 Jun 23:36:41 23:40:22 69° 76° (ENE) 23:44:05 437.505
TIGRISAT 29 Jun 23:37:08 23:41:44 61° 286° (WNW) 23:46:22 435.000
NANOSAT C BR1 29 Jun 23:38:05 23:41:21 21° 95° (E) 23:44:37 145.865
QB50P1 29 Jun 23:41:42 23:45:14 25° 96° (E) 23:48:44 145.935-145.965
UNISAT 6 29 Jun 23:42:51 23:47:21 50° 287° (WNW) 23:51:53 437.425
POPSAT HIP 1 29 Jun 23:44:59 23:48:37 26° 96° (E) 23:52:13 437.405
Cosmos 2504 29 Jun 23:45:09 23:51:10 20° 64° (ENE) 23:56:59 435.465 / 435.565
SO-50 29 Jun 23:52:25 23:56:31 29° 49° (NE) 00:00:30 436.795
CUBEBUG 1 29 Jun 23:55:19 23:59:40 74° 257° (WSW) 00:04:01 437.445
QB50P2 29 Jun 23:57:22 00:01:24 40° 98° (E) 00:05:25 145.880/145.840
DUCHIFAT 1 29 Jun 23:57:30 00:01:20 33° 97° (E) 00:05:11 145.980
POLYITAN 1 29 Jun 23:59:59 00:04:02 41° 99° (E) 00:08:05 437.675
VELOX 1 30 Jun 00:07:12 00:11:33 58° 259° (W) 00:15:54 145.980
JAS-2 30 Jun 00:08:09 00:09:08 10° 87° (E) 00:10:05 435.910
TISAT 1 30 Jun 00:19:48 00:22:46 19° 67° (ENE) 00:25:45 437.305
ANTELSAT 30 Jun 00:23:29 00:26:53 20° 293° (WNW) 00:30:19 437.575/2403.000
Cosmos 2491 30 Jun 00:36:55 00:45:35 67° 92° (E) 00:54:13 435.465 / 435.565
SPROUT 30 Jun 00:39:09 00:43:20 60° 259° (W) 00:47:33 437.525
UKube-1 30 Jun 00:40:40 00:44:42 38° 261° (W) 00:48:45 .
BUGSAT 1 30 Jun 00:47:12 00:51:15 55° 101° (E) 00:55:19 437.445
AISAT 30 Jun 00:49:39 00:52:51 19° 266° (W) 00:56:02 437.250
ESTCUBE 1 30 Jun 00:52:55 00:54:58 13° 269° (W) 00:57:01 437.505/2401.250
DX 1 30 Jun 01:04:43 01:07:38 18° 266° (W) 01:10:34 434.975-435.025
NANOSAT C BR1 30 Jun 01:13:23 01:17:05 30° 290° (WNW) 01:20:48 145.865
QB50P1 30 Jun 01:17:23 01:20:56 26° 291° (WNW) 01:24:28 145.935-145.965
POPSAT HIP 1 30 Jun 01:20:49 01:24:17 24° 291° (WNW) 01:27:44 437.405
YUBILEINY 30 Jun 01:25:51 01:33:38 36° 275° (W) 01:41:24 435.215
SWISSCUBE 30 Jun 01:27:45 01:31:38 25° 67° (ENE) 01:35:31 437.505
SO-50 30 Jun 01:32:54 01:36:57 30° 247° (WSW) 01:40:53 436.795
DUCHIFAT 1 30 Jun 01:33:44 01:36:49 20° 293° (WNW) 01:39:53 145.980
QB50P2 30 Jun 01:34:07 01:36:53 17° 294° (WNW) 01:39:39 145.880/145.840
POLYITAN 1 30 Jun 01:36:47 01:39:30 17° 294° (WNW) 01:42:14 437.675
Cosmos 2504 30 Jun 01:36:50 01:45:46 88° 263° (W) 01:54:14 435.465 / 435.565
BEESAT 2 30 Jun 01:38:12 01:40:10 13° 109° (ESE) 01:42:08 435.950
PCSat 30 Jun 01:39:22 01:44:35 51° 112° (ESE) 01:49:51 145.827
O/OREOS (USA 219) 30 Jun 01:48:12 01:51:44 23° 102° (ESE) 01:55:16 437.305
JAS-2 30 Jun 01:49:29 01:55:04 78° 285° (WNW) 02:00:15 435.910
BEESAT 30 Jun 01:52:12 01:56:37 39° 70° (ENE) 02:01:05 436.000
ITUPSAT 1 30 Jun 01:54:13 01:58:41 40° 70° (ENE) 02:03:11 437.325
TISAT 1 30 Jun 01:54:27 01:58:12 32° 263° (W) 02:01:57 437.305
Oscar 19 30 Jun 01:54:37 01:59:30 43° 99° (E) 02:04:21 437.125/150
ITAMSAT 1 30 Jun 02:23:35 02:24:46 11° 89° (E) 02:25:58 435.822/435.867
Gurwin Techsat 1B 30 Jun 02:23:49 02:28:41 35° 97° (E) 02:33:31 435.225
BUGSAT 1 30 Jun 02:24:34 02:26:09 12° 296° (WNW) 02:27:44 437.445
BEESAT 3 30 Jun 02:32:37 02:36:31 73° 302° (WNW) 02:40:27 437.485
Cosmos 2491 30 Jun 02:36:10 02:43:05 25° 292° (WNW) 02:50:02 435.465 / 435.565
SWISSCUBE 30 Jun 03:04:57 03:09:15 33° 263° (W) 03:13:35 437.505
BEESAT 2 30 Jun 03:13:44 03:17:34 47° 305° (NW) 03:21:26 435.950
PCSat 30 Jun 03:23:56 03:28:15 24° 311° (NW) 03:32:36 145.827
O/OREOS (USA 219) 30 Jun 03:26:57 03:30:57 31° 298° (WNW) 03:34:57 437.305
BEESAT 30 Jun 03:31:00 03:34:32 20° 266° (W) 03:38:05 436.000
Cosmos 2504 30 Jun 03:32:47 03:37:44 17° 284° (WNW) 03:42:36 435.465 / 435.565
ITUPSAT 1 30 Jun 03:33:09 03:36:39 20° 266° (W) 03:40:11 437.325
Oscar 19 30 Jun 03:34:38 03:38:31 22° 295° (WNW) 03:42:23 437.125/150
GONETS M04 30 Jun 03:34:44 03:36:19 11° 57° (ENE) 03:37:52
KKS-1 30 Jun 03:52:30 03:56:56 86° 72° (ENE) 04:01:22 437.445
MOZHAYETS 4 30 Jun 03:54:17 03:58:54 78° 75° (ENE) 04:03:33
ITAMSAT 1 30 Jun 03:59:34 04:04:49 82° 285° (WNW) 04:10:02 435.822/435.867
Gurwin Techsat 1B 30 Jun 04:04:00 04:08:28 28° 293° (WNW) 04:12:56 435.225
AIST 2 30 Jun 04:09:24 04:13:03 32° 114° (ESE) 04:16:44 435.215
Cosmos 2499 30 Jun 04:17:45 04:22:13 15° 60° (ENE) 04:26:33 435.465 / 435.565
STARS 30 Jun 04:20:15 04:24:36 87° 80° (E) 04:29:00 437.465
AO-7 30 Jun 04:32:27 04:40:48 66° 105° (ESE) 04:49:05 29.400- 29.500
AIST 1 30 Jun 04:34:06 04:38:19 63° 265° (W) 04:42:31
HORYU 2 30 Jun 05:10:16 05:14:15 30° 97° (E) 05:18:11 437.375
AO-85 30 Jun 05:23:58 05:27:42 24° 47° (NE) 05:31:10 145.980
CUBESAT XI-V 30 Jun 05:26:17 05:31:00 85° 78° (ENE) 05:35:43 437.345
GONETS M04 30 Jun 05:26:31 05:35:09 61° 79° (E) 05:43:47
NOAA 15 30 Jun 05:37:37 05:39:33 12° 90° (E) 05:41:29 137.62
ITAMSAT 1 30 Jun 05:42:41 05:43:25 10° 302° (WNW) 05:44:09 435.822/435.867
AIST 2 30 Jun 05:48:13 05:51:34 23° 311° (NW) 05:54:56 435.215
STRAND 1 30 Jun 05:53:00 05:55:20 13° 61° (ENE) 05:57:41 437.568
PHONESAT 2.4 30 Jun 06:05:40 06:08:28 33° 155° (SSE) 06:11:17 2401.200-2431.200
Cosmos 2499 30 Jun 06:08:13 06:17:01 76° 81° (E) 06:25:12 435.465 / 435.565
BRITE-PL 30 Jun 06:11:07 06:14:25 23° 95° (E) 06:17:46 437.365/2234.400
CUSAT 1 30 Jun 06:13:07 06:18:37 22° 89° (E) 06:23:33 437.405
Cubesat XI-IV 30 Jun 06:19:02 06:23:17 23° 94° (E) 06:27:30 437.490
AO-7 30 Jun 06:26:07 06:32:56 29° 303° (WNW) 06:39:44 29.400- 29.500
NOAA 18 30 Jun 06:27:02 06:31:53 30° 97° (E) 06:36:43 137.9125
GOMX 1 30 Jun 06:36:00 06:39:06 19° 95° (E) 06:42:18 467.674
HORYU 2 30 Jun 06:47:02 06:50:38 24° 292° (WNW) 06:54:15 437.375
DANDE 30 Jun 06:50:38 06:56:56 24° 86° (E) 07:02:53 436.750
CUTE-I 30 Jun 06:52:08 06:57:21 48° 100° (E) 07:02:30 437.470
LilacSat-2 30 Jun 07:03:26 07:07:19 68° 102° (ESE) 07:11:10 437.200
AO-85 30 Jun 07:04:15 07:08:13 33° 247° (WSW) 07:11:53 145.980
NOAA 15 30 Jun 07:14:37 07:19:52 76° 285° (WNW) 07:25:04 137.62
ISS 30 Jun 07:23:59 07:26:39 23° 132° (SE) 07:29:20 145.825
GONETS M04 30 Jun 07:24:25 07:31:17 27° 278° (W) 07:38:13
DOVE 4 30 Jun 07:26:43 07:30:41 32° 98° (E) 07:34:50 437.250
STRAND 1 30 Jun 07:28:41 07:33:49 77° 257° (WSW) 07:39:00 437.568
PHONESAT 2.4 30 Jun 07:41:54 07:44:58 76° 351° (N) 07:48:02 2401.200-2431.200
PRISM 30 Jun 07:43:10 07:46:17 21° 68° (ENE) 07:49:23 437.425
BRITE-PL 30 Jun 07:49:29 07:52:54 26° 290° (WNW) 07:56:23 437.365/2234.400
CUSAT 1 30 Jun 07:52:38 08:00:22 68° 280° (W) 08:06:49 437.405
HO-68 30 Jun 07:54:06 07:59:48 25° 94° (E) 08:05:27 435.675
Cubesat XI-IV 30 Jun 07:58:26 08:03:29 42° 290° (WNW) 08:08:30 437.490
Cosmos 2499 30 Jun 08:03:03 08:09:03 21° 281° (W) 08:14:50 435.465 / 435.565
NOAA 18 30 Jun 08:07:32 08:12:30 35° 293° (WNW) 08:17:29 137.9125
CINEMA 3 30 Jun 08:09:21 08:13:22 28° 96° (E) 08:17:30 145.822/145.860
GOMX 1 30 Jun 08:13:28 08:17:15 32° 288° (WNW) 08:21:11 467.674
COMPASS 1 30 Jun 08:28:18 08:31:09 18° 93° (E) 08:33:59 437.405
DANDE 30 Jun 08:30:48 08:39:14 73° 280° (W) 08:46:56 436.750
CANX-2 30 Jun 08:32:41 08:36:51 48° 99° (E) 08:40:57 2200.000
CUTE-I 30 Jun 08:33:02 08:37:01 22° 296° (WNW) 08:40:59 437.470
UWE-3 30 Jun 08:39:51 08:41:44 12° 90° (E) 08:43:36 435.000/436.395/437.385
CUTE 1.7 + AOD 2 30 Jun 08:52:15 08:56:32 71° 101° (ESE) 09:00:45 437.475
SEEDS 30 Jun 08:52:55 08:57:04 50° 100° (E) 09:01:08 437.485
AUBIESAT-1 30 Jun 08:59:13 08:59:33 10° 97° (E) 08:59:54 437.475
ISS 30 Jun 08:59:56 09:02:58 35° 329° (NNW) 09:06:01 145.825
DOVE 4 30 Jun 09:04:53 09:08:14 22° 291° (WNW) 09:11:42 437.250
UNISAT 6 30 Jun 09:06:58 09:08:28 12° 62° (ENE) 09:09:59 437.425
PRISM 30 Jun 09:17:43 09:21:23 30° 262° (W) 09:25:04 437.425
PHONESAT 2.4 30 Jun 09:18:37 09:21:41 73° 8° (N) 09:24:45 2401.200-2431.200
AAUSAT CUBESAT 2 30 Jun 09:26:41 09:30:51 69° 101° (ESE) 09:34:57 437.432
CUBEBUG 2 30 Jun 09:30:28 09:35:06 65° 101° (E) 09:39:48 437.445
RS-15 30 Jun 09:36:32 09:42:11 15° 95° (E) 09:47:57 29.354- 29.394
M-CUBED/EXP-1 PRIME 30 Jun 09:37:04 09:40:47 36° 104° (ESE) 09:44:44 437.505
HO-68 30 Jun 09:40:49 09:47:53 60° 291° (WNW) 09:54:54 435.675
CUSAT 1 30 Jun 09:41:09 09:43:06 11° 294° (WNW) 09:45:00 437.405
ANTELSAT 30 Jun 09:44:08 09:47:51 29° 69° (ENE) 09:51:39 437.575/2403.000
CINEMA 3 30 Jun 09:46:31 09:50:24 27° 290° (WNW) 09:54:25 145.822/145.860
ZACube-1 30 Jun 09:48:43 09:53:07 45° 99° (E) 09:57:31 437.345
Oscar 11 30 Jun 09:55:01 09:59:19 55° 100° (E) 10:03:34 145.826/435.025
COMPASS 1 30 Jun 10:03:00 10:06:48 34° 288° (WNW) 10:10:34 437.405
FUNcube-1 30 Jun 10:05:08 10:09:40 65° 101° (E) 10:14:13 145.935
CANX-2 30 Jun 10:09:56 10:12:16 14° 295° (WNW) 10:14:35 2200.000
UWE-3 30 Jun 10:13:58 10:18:32 62° 285° (WNW) 10:23:09 435.000/436.395/437.385
DANDE 30 Jun 10:18:43 10:23:02 15° 296° (WNW) 10:27:10 436.750
PCSat 30 Jun 10:28:26 10:33:21 33° 53° (NE) 10:38:13 145.827
SEEDS 30 Jun 10:30:12 10:32:18 14° 295° (WNW) 10:34:23 437.485
NANOSAT C BR1 30 Jun 10:30:14 10:32:29 14° 65° (ENE) 10:34:45 145.865
AUBIESAT-1 30 Jun 10:30:16 10:34:15 65° 289° (WNW) 10:38:29 437.475
CUTE 1.7 + AOD 2 30 Jun 10:31:25 10:31:44 10° 297° (WNW) 10:32:03 437.475
QB50P1 30 Jun 10:33:54 10:36:34 17° 66° (ENE) 10:39:15 145.935-145.965
TIGRISAT 30 Jun 10:34:28 10:38:46 80° 257° (WSW) 10:43:11 435.000
POPSAT HIP 1 30 Jun 10:37:09 10:39:57 18° 67° (ENE) 10:42:47 437.405
ISS 30 Jun 10:39:02 10:40:10 11° 348° (NNW) 10:41:18 145.825
